Temperature
11 11 11 11 11 11 11 11 11 10 10 11 11 11 11 11 11 11 11 11 11 11 11 11 11 11 11 11 11 11 11 11 11 11 11 11 11 11
11 11 11 11 11 11 10 10 10 10 10 10 10 11 11 11 10 10 10 11 11 11 11 11 11 11 11 11 11 11 11 11 11 11 11 11 11 11
11 11 11 11 10 10 10 10 10 10 10 10 10 10 10 10 10 10 10 10 10 10 10 10 10 10 10 10 10 10 10 10 10 10 10 10 11 11
11 10 10 10 10 10 10 10 10 10 10 10 10 10 10 10 10 10 10 10 10 10 10 10 10 10 10 10 10 10 10 10 10 10 10 10 10 10
10 10 10 10 10 10 10 10 10 10 10 9 10 9 9 9 9 9 9 9 9 9 9 9 9 9 9 9 9 9 9 9 10 10 10 10 10 10
10 10 10 10 10 10 10 10 9 9 9 9 9 9 9 9 9 9 9 9 9 9 9 9 9 9 9 9 9 9 9 9 9 9 9 9 10 10
10 10 10 10 9 9 9 9 9 9 9 9 9 9 9 9 9 9 8 9 9 9 9 9 9 9 9 9 9 9 9 9 9 9 9 9 9 9
10 10 10 9 9 9 9 9 9 9 9 8 9 8 8 8 8 8 8 8 8 8 8 8 8 8 8 8 8 8 8 8 8 8 9 9 9 9
9 9 9 9 9 9 9 8 8 8 8 8 8 8 8 8 8 8 7 7 7 7 7 8 8 8 8 8 8 8 8 8 8 8 8 8 8 9
9 9 9 9 9 8 8 8 8 8 8 8 8 8 8 7 7 7 7 7 7 7 7 7 7 7 7 7 7 8 8 8 8 8 8 8 8 8
9 9 8 8 8 8 8 8 8 8 8 7 7 7 7 7 7 7 7 6 6 7 7 7 7 7 7 7 7 7 7 7 7 7 7 7 7 7
9 8 8 8 8 8 8 8 8 8 7 7 7 7 7 7 7 7 6 6 6 6 6 6 6 6 6 7 7 7 7 7 7 7 7 7 7 7
8 8 8 8 7 7 7 7 7 7 7 7 7 7 7 7 6 6 6 6 6 6 6 6 6 6 6 6 6 6 6 6 6 7 7 7 7 7
8 8 7 7 7 7 7 7 7 7 6 6 6 6 6 6 6 6 6 6 6 6 6 6 6 5 5 5 6 6 6 6 6 6 6 6 6 6
7 7 7 7 7 6 6 6 6 6 6 6 6 6 6 6 5 5 5 5 5 5 5 5 5 5 5 5 5 5 5 5 5 6 6 6 6 6
7 7 6 6 6 6 6 6 6 5 5 5 5 5 5 5 5 5 5 5 5 5 5 5 5 5 5 5 5 5 5 5 5 5 5 5 5 5
6 6 6 6 5 5 5 5 5 5 5 5 5 5 5 5 5 5 4 4 5 5 5 5 4 4 4 4 4 4 4 4 5 5 5 5 5 5
6 6 5 5 5 5 5 5 4 4 4 4 4 4 4 4 4 4 4 4 4 4 4 4 4 4 4 4 4 4 4 4 4 4 4 4 5 5
5 5 5 5 4 4 4 4 4 4 4 4 4 4 3 3 4 4 4 4 4 4 4 4 4 4 4 4 4 4 4 4 4 4 4 4 4 4
5 5 5 4 4 4 4 4 3 3 3 3 3 3 3 3 3 3 3 3 3 3 3 3 3 3 3 3 3 3 3 4 4 4 4 4 4 4
5 4 4 4 4 3 3 3 3 3 3 3 3 3 3 3 3 3 3 3 3 3 3 3 3 3 3 3 3 3 3 3 3 3 3 3 3 3
4 4 4 3 3 3 3 3 2 2 2 2 2 2 2 2 2 2 2 2 2 2 2 2 2 2 2 2 2 2 2 3 3 3 3 3 3 2
4 3 3 3 3 3 3 2 2 2 2 2 2 2 2 2 2 2 2 2 2 2 2 2 2 2 2 2 2 2 2 2 2 2 2 2 2 2
Wind_Speed
1 1 1 1 1 1 2 3 3 2 2 2 1 2 2 1 2 1 2 3 2 2 1 1 1 1 2 2 2 1 2 2 1 1 1 2 3 3
1 1 1 1 1 1 1 1 2 3 2 2 2 2 1 1 2 1 1 2 2 2 1 1 0 0 1 1 1 0 1 1 1 1 1 2 2 3
1 2 2 2 1 1 1 1 1 2 2 1 1 1 0 1 2 2 2 2 2 2 2 2 2 1 0 1 0 0 1 1 1 2 2 2 2 2
2 2 2 2 2 1 1 1 1 1 3 2 1 1 1 1 1 1 2 2 3 3 3 3 3 2 2 2 2 2 2 2 2 3 3 2 2 2
3 3 3 3 2 2 2 2 1 1 2 2 1 1 1 1 1 2 2 2 3 3 3 3 3 2 2 2 3 3 3 3 3 3 4 4 3 3
3 3 3 4 4 4 3 3 2 2 2 2 1 1 1 1 0 1 2 2 2 2 3 3 3 3 3 4 4 4 4 4 4 4 4 4 4 4
2 3 3 4 4 4 3 3 4 3 2 1 1 1 1 1 1 1 1 2 2 1 1 2 2 2 3 4 4 4 4 4 4 4 3 4 4 4
3 2 2 3 3 4 4 4 5 5 4 3 2 3 3 3 2 1 1 1 2 2 1 2 1 2 3 3 4 5 5 5 5 4 3 3 4 4
4 3 2 2 2 2 3 3 4 5 5 5 5 5 5 4 3 2 2 3 3 3 1 3 2 3 3 4 5 6 5 5 4 3 3 4 4 4
4 4 4 3 3 4 3 2 3 3 5 4 5 6 5 5 5 5 4 3 2 2 1 2 2 3 3 4 5 5 5 5 4 4 4 4 4 4
3 3 4 4 4 4 4 3 2 3 3 4 4 4 4 5 4 2 2 1 2 3 1 1 2 2 2 2 4 5 5 5 5 5 5 4 4 4
2 2 3 3 3 3 4 4 4 4 2 2 2 3 2 3 4 5 5 4 2 2 2 2 1 1 2 2 1 2 3 5 6 5 4 4 4 3
2 2 2 3 3 3 3 3 4 3 2 2 2 1 1 1 2 3 4 4 4 3 3 2 2 1 1 2 2 2 2 2 3 4 4 4 3 3
4 3 3 3 3 3 2 2 2 1 1 1 1 1 2 2 3 3 4 4 4 4 4 4 2 3 2 1 2 2 2 2 2 2 2 3 4 4
3 4 3 2 2 1 1 2 1 1 1 1 2 3 3 3 2 2 1 1 1 2 1 2 2 2 3 3 2 2 2 2 2 1 2 2 2 2
2 2 3 2 1 1 1 1 0 2 2 2 3 2 2 1 1 1 1 1 0 2 2 1 1 2 2 2 2 2 2 1 1 2 1 1 2 2
3 1 0 0 1 0 0 1 0 1 1 1 1 1 1 1 1 1 0 0 1 1 1 1 2 0 1 1 1 2 1 1 1 1 0 1 1 2
4 2 2 2 3 2 2 1 1 2 2 1 1 1 1 1 1 1 0 1 1 2 1 1 0 1 1 2 0 1 1 2 1 1 1 1 1 2
3 3 3 3 3 3 2 2 2 2 2 2 2 2 1 1 1 1 1 0 1 1 1 0 0 1 1 2 2 1 1 1 1 1 0 1 2 2
3 3 3 3 3 3 3 3 2 2 2 2 2 2 2 1 1 1 1 1 1 1 0 0 0 2 3 2 1 2 1 1 1 1 1 1 1 1
4 4 4 4 3 3 3 3 3 3 3 2 2 2 2 2 2 2 2 2 1 1 1 2 3 2 1 1 1 2 2 2 1 0 1 1 0 0
4 4 4 4 4 4 3 3 3 3 3 3 2 2 2 2 2 3 2 2 2 2 2 1 1 1 1 1 1 1 2 3 4 5 4 1 1 2
5 4 4 4 4 3 3 4 4 3 3 3 3 3 3 3 2 2 3 3 2 2 1 0 1 1 1 1 1 1 1 1 2 2 3 5 3 1
Wind_Direction
187 169 168 206 173 160 155 155 154 177 263 274 299 311 334 350 350 9 13 1 355 345 327 335 6 17 15 14 8 19 20 20 352 317 299 250 237 224
179 157 175 194 163 143 151 146 149 161 205 257 254 283 307 340 336 345 307 326 333 343 315 281 295 277 357 2 15 53 28 20 14 352 322 296 263 241
189 171 198 175 161 164 147 136 134 139 170 274 305 301 326 349 347 331 315 303 292 305 301 273 259 244 244 295 273 260 295 298 294 301 306 311 304 253
192 167 186 160 152 159 158 172 175 159 158 193 295 320 296 298 337 343 335 319 287 289 294 279 256 240 231 245 253 255 273 278 278 280 279 278 289 272
188 182 193 161 170 180 178 181 186 154 134 158 227 280 287 331 355 335 340 333 319 303 292 279 267 268 247 249 257 263 268 269 269 269 265 259 261 260
199 198 200 188 194 189 185 184 165 144 134 144 188 253 267 288 37 325 328 317 317 334 328 303 287 279 269 261 254 260 265 267 271 269 255 246 247 247
212 213 208 200 200 193 190 182 166 159 159 167 201 234 260 236 242 230 268 303 305 326 329 325 317 295 270 264 257 263 264 259 269 274 251 237 237 237
215 229 226 211 212 207 202 185 177 175 185 189 211 221 237 236 230 226 240 292 289 293 272 295 302 282 270 262 259 257 259 259 261 267 255 245 239 236
205 213 222 217 206 194 199 190 201 198 189 187 203 222 222 221 203 218 227 223 243 257 226 272 280 275 267 270 266 256 257 258 259 266 267 252 243 242
204 204 210 223 211 195 181 187 216 225 218 203 208 223 223 211 202 209 218 230 266 268 180 248 277 267 275 269 266 256 256 253 258 267 271 260 252 245
217 211 205 211 223 200 179 191 226 257 241 221 226 231 234 224 198 165 172 185 269 269 224 203 263 281 285 282 270 260 257 258 260 263 259 255 252 245
226 230 217 211 215 193 188 192 214 239 235 246 260 264 251 238 215 197 196 201 226 253 231 189 240 286 299 290 279 276 275 267 261 260 256 247 233 222
206 232 233 216 208 196 192 197 218 223 207 211 232 259 284 282 254 227 208 200 204 234 220 182 210 216 230 277 293 268 254 270 272 272 261 237 218 203
208 221 221 207 203 194 202 218 231 203 156 172 209 246 252 260 265 256 230 215 216 225 214 184 197 201 204 251 272 279 272 279 270 276 268 247 235 228
205 202 198 200 195 197 211 215 184 149 166 193 227 245 246 253 270 278 273 242 261 270 219 197 197 201 193 216 239 250 273 281 269 264 274 269 255 230
193 189 188 191 186 213 268 270 206 181 184 211 232 252 272 280 268 255 242 228 250 300 320 288 228 181 196 221 219 245 234 244 266 264 259 265 276 250
147 130 139 176 207 242 251 262 195 156 192 228 229 262 272 265 279 284 244 186 209 255 296 336 346 65 177 173 213 240 250 260 249 240 214 286 266 263
143 160 193 201 208 211 208 218 212 208 218 223 225 231 237 242 267 316 40 185 229 253 257 279 345 23 22 5 281 228 261 273 282 244 186 202 261 272
162 188 203 212 217 216 214 215 222 222 213 215 226 234 235 233 224 227 216 221 245 252 265 266 170 161 200 280 310 301 228 275 300 310 229 210 238 254
191 203 214 217 216 216 216 221 223 213 213 222 224 222 217 213 215 227 222 222 233 236 295 338 245 218 214 230 253 305 310 234 245 259 266 282 290 320
210 212 215 215 216 217 218 216 214 215 218 219 223 219 213 208 216 225 226 231 217 208 235 257 261 268 188 102 54 330 332 344 350 262 220 179 282 337
212 214 218 216 213 211 213 214 214 217 220 223 225 222 219 217 220 220 219 223 222 220 233 263 339 65 108 158 211 279 329 354 8 20 26 41 169 205
215 215 215 214 214 209 210 211 210 219 220 218 218 218 215 221 226 222 222 219 211 207 194 141 82 96 127 177 205 268 347 359 12 26 1 360 16 15
Height
1523 1523 1523 1523 1523 1523 1523 1523 1524 1523 1523 1523 1523 1523 1524 1524 1524 1523 1523 1523 1523 1522 1522 1522 1521 1521 1520 1520 1520 1519 1519 1519 1519 1519 1519 1520 1520 1520
1521 1521 1521 1521 1521 1521 1521 1521 1522 1522 1521 1521 1521 1522 1522 1522 1522 1522 1522 1521 1521 1521 1520 1520 1520 1519 1519 1518 1518 1517 1517 1517 1517 1517 1517 1517 1518 1518
1519 1519 1519 1520 1520 1520 1520 1520 1520 1520 1519 1519 1520 1520 1520 1520 1520 1520 1520 1519 1519 1519 1518 1518 1518 1517 1517 1517 1516 1516 1515 1515 1515 1515 1514 1515 1515 1515
1517 1517 1517 1517 1517 1517 1517 1517 1518 1517 1518 1517 1517 1518 1518 1518 1518 1518 1518 1517 1517 1517 1516 1516 1515 1515 1515 1514 1514 1514 1513 1513 1513 1512 1512 1512 1512 1513
1515 1515 1515 1515 1515 1515 1515 1515 1515 1515 1515 1515 1515 1516 1516 1516 1516 1515 1515 1515 1514 1514 1514 1513 1513 1513 1512 1512 1512 1511 1511 1510 1510 1509 1508 1508 1509 1510
1512 1512 1512 1513 1513 1513 1513 1513 1513 1513 1513 1513 1513 1513 1513 1513 1513 1512 1512 1512 1512 1511 1511 1511 1510 1510 1509 1509 1509 1508 1508 1507 1506 1505 1504 1504 1505 1506
1509 1509 1510 1510 1510 1510 1510 1510 1510 1510 1510 1510 1510 1510 1510 1509 1509 1509 1509 1509 1509 1508 1508 1507 1507 1506 1506 1506 1506 1505 1505 1504 1504 1502 1501 1501 1502 1504
1506 1506 1507 1507 1507 1507 1507 1507 1507 1507 1507 1507 1506 1506 1506 1507 1507 1506 1506 1506 1505 1506 1505 1504 1504 1503 1503 1503 1502 1502 1502 1502 1501 1500 1500 1500 1501 1502
1503 1503 1503 1503 1503 1504 1504 1504 1504 1504 1504 1504 1504 1503 1504 1504 1504 1503 1503 1502 1502 1502 1502 1500 1500 1499 1500 1499 1499 1499 1499 1499 1498 1498 1498 1498 1498 1499
1499 1500 1500 1500 1500 1500 1500 1500 1500 1500 1500 1500 1501 1501 1501 1501 1501 1500 1500 1500 1499 1499 1499 1497 1497 1496 1497 1496 1496 1496 1496 1496 1496 1496 1496 1496 1496 1496
1496 1496 1496 1496 1496 1496 1496 1496 1496 1496 1497 1497 1497 1497 1497 1497 1497 1497 1496 1496 1495 1495 1495 1494 1493 1493 1493 1493 1493 1493 1493 1493 1493 1493 1493 1493 1493 1493
1492 1492 1492 1492 1492 1493 1493 1492 1492 1493 1493 1493 1493 1493 1493 1493 1493 1493 1493 1492 1491 1491 1491 1491 1491 1491 1490 1490 1490 1490 1490 1490 1490 1490 1490 1490 1490 1490
1488 1488 1488 1488 1488 1489 1489 1488 1489 1489 1489 1489 1489 1489 1489 1489 1489 1489 1489 1489 1488 1488 1488 1488 1487 1487 1487 1486 1486 1487 1487 1486 1486 1486 1486 1486 1486 1487
1483 1484 1484 1484 1484 1485 1484 1484 1485 1485 1485 1485 1485 1485 1485 1485 1485 1485 1485 1485 1485 1485 1485 1485 1484 1484 1484 1483 1483 1483 1483 1483 1483 1482 1482 1483 1483 1483
1480 1480 1480 1480 1480 1480 1480 1480 1481 1481 1480 1480 1480 1480 1481 1481 1481 1481 1481 1481 1481 1481 1481 1481 1481 1480 1480 1480 1480 1480 1480 1480 1480 1479 1479 1479 1479 1480
1475 1476 1476 1476 1476 1476 1476 1476 1476 1476 1476 1476 1476 1477 1477 1477 1477 1477 1477 1477 1476 1476 1477 1477 1477 1477 1477 1477 1477 1476 1477 1477 1477 1477 1476 1476 1476 1477
1471 1471 1471 1471 1471 1471 1472 1472 1472 1473 1473 1473 1473 1473 1473 1473 1473 1473 1473 1473 1473 1473 1473 1474 1474 1474 1474 1474 1473 1473 1473 1474 1474 1474 1473 1473 1473 1474
1467 1467 1467 1467 1468 1468 1468 1468 1469 1469 1469 1469 1469 1469 1469 1469 1469 1470 1470 1470 1470 1470 1470 1470 1470 1470 1471 1471 1471 1470 1470 1470 1470 1470 1470 1470 1470 1471
1463 1463 1463 1464 1464 1465 1465 1465 1465 1465 1465 1465 1465 1466 1466 1466 1466 1466 1467 1467 1467 1467 1467 1467 1467 1467 1467 1467 1468 1469 1468 1467 1467 1467 1467 1467 1467 1467
1459 1459 1460 1460 1460 1461 1461 1461 1461 1462 1462 1462 1462 1462 1463 1463 1463 1463 1464 1464 1464 1464 1464 1464 1465 1465 1465 1465 1465 1466 1466 1465 1465 1464 1465 1465 1465 1465
1455 1455 1456 1456 1456 1457 1457 1457 1458 1458 1459 1459 1459 1459 1460 1460 1460 1461 1461 1461 1461 1462 1461 1462 1462 1463 1463 1463 1463 1463 1463 1463 1463 1462 1462 1462 1461 1461
1451 1451 1452 1452 1452 1453 1453 1454 1454 1455 1455 1456 1456 1456 1457 1457 1457 1458 1458 1458 1458 1459 1459 1460 1460 1461 1460 1460 1460 1460 1460 1461 1461 1461 1461 1460 1459 1459
1447 1448 1448 1448 1449 1449 1450 1450 1451 1451 1452 1452 1453 1453 1454 1454 1454 1455 1455 1456 1456 1456 1457 1457 1458 1458 1458 1458 1458 1458 1458 1458 1458 1458 1458 1458 1458 1458